Left ArrowRight Arrow

Hourly Observations for May 5, 2024

Temp ( °F °C ) Dew Point ( °F °C ) Humidity (%) Winds ( mph kmh ) Pressure ( in mb ) Visibility ( mi km ) Precip ( " mm )
12:56 am 00:56 Clear 42 5.6 28 -2.2 57 57 E 12 19 29.90 1013 10 16 0.00 0.00
1:56 am 01:56 Clear 43 6.1 28 -2.2 55 55 E 10 17 29.87 1012 10 16 0.00 0.00
2:56 am 02:56 Clear 39 3.9 29 -1.7 67 67 ENE 8 13 29.84 1011 10 16 0.00 0.00
3:56 am 03:56 Clear 40 4.4 30 -1.1 67 67 NE 10 17 29.83 1010 10 16 0.00 0.00
4:56 am 04:56 Clear 39 3.9 30 -1.1 70 70 ENE 14 22 29.80 1009 10 16 0.00 0.00
5:56 am 05:56 Sunny 38 3.3 30 -1.1 73 73 E 10 17 29.79 1009 10 16 0.00 0.00
6:56 am 06:56 Sunny 43 6.1 31 -0.6 62 62 ENE 13 20 29.77 1008 10 16 0.00 0.00
7:56 am 07:56 Sunny 46 7.8 32 0 58 58 ENE 12 19 29.76 1008 10 16 0.00 0.00
8:56 am 08:56 Sunny 52 11.1 34 1.1 50 50 E 13 20 29.74 1007 10 16 0.00 0.00
9:56 am 09:56 Sunny 56 13.3 36 2.2 47 47 ESE 16 26 29.71 1006 10 16 0.00 0.00
10:56 am 10:56 Sunny 63 17.2 38 3.3 39 39 E 20 31 29.67 1005 10 16 0.00 0.00
11:56 am 11:56 Sunny 66 18.9 39 3.9 37 37 ESE 18 30 29.62 1003 10 16 0.00 0.00
12:56 pm 12:56 Sunny 75 23.9 37 2.8 25 25 SE 24 39 29.55 1001 10 16 0.00 0.00
1:56 pm 13:56 Sunny 75 23.9 43 6.1 32 32 SE 26 43 29.53 1000 10 16 0.00 0.00
2:56 pm 14:56 Sunny 76 24.4 44 6.7 32 32 SSE 25 41 29.51 999 10 16 0.00 0.00
3:56 pm 15:56 Sunny 74 23.3 45 7.2 36 36 ESE 24 39 29.50 999 10 16 0.00 0.00
4:56 pm 16:56 Sunny 74 23.3 46 7.8 37 37 ESE 22 35 29.47 998 10 16 0.00 0.00
5:56 pm 17:56 Sunny 72 22.2 47 8.3 41 41 ESE 21 33 29.47 998 10 16 0.00 0.00
6:56 pm 18:56 Mostly Sunny 70 21.1 47 8.3 44 44 SE 18 30 29.46 998 10 16 0.00 0.00
7:56 pm 19:56 Mostly Cloudy 68 20 47 8.3 47 47 SE 18 30 29.47 998 10 16 0.00 0.00
8:56 pm 20:56 Cloudy 66 18.9 47 8.3 50 50 SE 15 24 29.48 998 10 16 0.00 0.00
9:56 pm 21:56 Cloudy 65 18.3 48 8.9 54 54 SE 9 15 29.51 999 10 16 0.00 0.00
10:56 pm 22:56 Cloudy with Light Rain 62 16.7 49 9.4 62 62 E 10 17 29.49 999 10 16 0.01 0.13
11:56 pm 23:56 Mostly Cloudy 58 14.4 50 10 75 75 ENE 12 19 29.46 998 10 16 0.01 0.13

Powered by Vaisala Xweather